Regional Weather Roundup
Issued by NWS Memphis, TN

Home | Current Version | Previous Version | Text Only | Print | Product List | Glossary On
Versions: 1 2 3 4 5 6 7 8 9 10 11 12 13 14 15 16 17 18 19 20 21 22 23 24 25 26 27 28 29 30 31 32 33 34 35 36 37 38 39 40 41 42 43 44 45 46 47 48 49 50
000
ASUS44 KMEG 221710
RWRMEG
MEMPHIS CWA HOURLY WEATHER ROUNDUP
NATIONAL WEATHER SERVICE MEMPHIS TN
1200 PM CDT SUN OCT 22 2017

...WEST TENNESSEE...

CITY           SKY/WX    TMP DP  RH WIND       PRES   REMARKS
MEMPHIS INTL   CLOUDY    71  67  87 S14       30.00F
NWS MEMPHIS      N/A     71 N/A N/A MISG        N/A
JACKSON        MOSUNNY   76  64  66 S14G22    30.03F
COVINGTON      PTSUNNY   70  66  88 S7        30.01F
SOMERVILLE     CLOUDY    73  64  73 S9G15     30.01R
BOLIVAR        MOSUNNY   73  63  68 SE14      30.02F
LEXINGTON      PTSUNNY   73  63  68 S8G20     30.08F
SELMER         PTSUNNY   75  63  64 S15       30.05F
SAVANNAH       CLOUDY    77  63  61 S13G20    30.07S
DYERSBURG        N/A     75  63  66 S10       30.01F
UNION CITY     MOSUNNY   79  61  53 S18       30.01F
HUNTINGDON     MOSUNNY   75  61  60 S17G25    30.04F


...EASTERN ARKANSAS...

CITY           SKY/WX    TMP DP  RH WIND       PRES   REMARKS
JONESBORO      MOSUNNY   73  63  70 SE10      29.98S
WEST MEMPHIS   CLOUDY    67  66  97 CALM      29.99S
BATESVILLE     CLOUDY    66  59  78 W7        30.02R
NEWPORT        CLOUDY    67  60  78 W6        29.99F
WALNUT RIDGE     N/A    N/A N/A N/A MISG        N/A
BLYTHEVILLE    CLOUDY    69  67  93 S7        30.00F
SEARCY         PTSUNNY   66  62  87 W6        30.04R
PINE BLUFF     CLOUDY    64  59  83 W10       30.05R
MONTICELLO     CLOUDY    64  59  83 SW9       30.06F


...NORTH MISSISSIPPI...

CITY           SKY/WX    TMP DP  RH WIND       PRES   REMARKS
TUPELO         CLOUDY    73  64  73 SE10G18   30.06F
BATESVILLE     DRIZZLE   68  65  90 S3        30.04S
OLIVE BRANCH   LGT RAIN N/A N/A N/A S9        30.01S FOG
TUNICA         RAIN     N/A N/A N/A SE5       30.01S
CLARKSDALE       N/A     68  68 100 SE6       30.03R
CORINTH        CLOUDY    75  63  64 SE12      30.05F
GREENWOOD      LGT RAIN  68  66  93 SW6       30.04R
COLUMBUS       LGT RAIN  74  68  80 S8        30.07R
STARKVILLE     CLOUDY    70  64  83 S3        30.10S
GOLDEN TRIANGL CLOUDY    73  66  78 S9        30.09R


...SOUTHEAST MISSOURI...

CITY           SKY/WX    TMP DP  RH WIND       PRES   REMARKS
KENNETT        CLOUDY    68  66  94 S8        29.98S
MALDEN         PTSUNNY   68  63  83 S9        30.00S
WEST PLAINS    CLOUDY    62  59  90 W5        30.04S
POPLAR BLUFF   MOSUNNY   71  62  73 S8        29.98R
CAPE GIRARDEAU CLOUDY    72  62  71 S22G31    29.98R


...NORTHWEST ALABAMA...

CITY           SKY/WX    TMP DP  RH WIND       PRES   REMARKS
MUSCLE SHOALS  PTSUNNY   76  62  62 S18G29    30.12S


...MIDDLE TENNESSEE...

CITY           SKY/WX    TMP DP  RH WIND       PRES   REMARKS
NASHVILLE      PTSUNNY   79  59  50 S25G35    30.13S
CLARKSVILLE    CLOUDY    76  59  55 S10G22    30.09R
COLUMBIA       PTSUNNY   75  61  60 S14G23    30.11R


...WESTERN KENTUCKY...

CITY           SKY/WX    TMP DP  RH WIND       PRES   REMARKS
PADUCAH        CLOUDY    75  60  59 S13G22    30.01S
FORT CAMPBELL  MOSUNNY   75  58  56 S15G23    30.08R


...CENTRAL ARKANSAS...

CITY           SKY/WX    TMP DP  RH WIND       PRES   REMARKS
LITTLE ROCK    CLOUDY    64  62  93 W13       30.05F


SKY/WX REPORTED AS FAIR MEANS FEW OR NO CLOUDS BELOW
12 THOUSAND FEET.




USA.gov is the U.S. government's official web portal to all federal, state and local government web resources and services.